Location: Azul
(36.7830°S, 59.8500°W)
Time: 02:54:45
(UTC-03:00)

ISS - Pass Details

Date: 19 October 2017
Orbit: 400 x 408 km, 51.6° (Epoch: 24 October)

Event Time Altitude Azimuth Distance (km) Brightness Sun altitude
Exits shadow 04:34:45 - 216° (SW) 2,200 -0.2 -18.5°
Reaches altitude 10° 04:36:54 10° 198° (SSW) 1,493 -0.8 -18.1°
Maximum altitude 04:39:16 18° 153° (SSE) 1,105 -0.9 -17.7°
Drops below altitude 10° 04:41:38 10° 108° (ESE) 1,481 0.3 -17.3°
Sets 04:44:11 0° 87° (E) 2,335 1.1 -16.9°
